カタログに戻る

STARLINK-30335

運用中通信VLEO
NORAD 57710·PAYLOAD·🇺🇸 United States

打ち上げ Aug 27, 2023 から Cape Canaveral Space Force Station

Loading…

次のパス (今後24時間)

TLE

最新Source: CelesTrak SupGP

元期: Sep 15, 2026, 02:54 UTC

1 57710C 23129N   26258.12131944  .00063318  00000+0  22934-2 0  2585
2 57710  43.0012 127.9572 0001488 274.8306 145.3757 15.27546929    19

AllMySatでSTARLINK-30335をリアルタイム追跡

Download on the App Store